Weather History for KINS - July, 2013

Change the Weather History Date:

Tuesday, July 23, 2013

  Actual Average (KDRA) Record (KDRA)
Temperature  
Mean Temperature 80 °F -  
Max Temperature 91 °F 99 °F 108 °F (1996)
Min Temperature 68 °F 69 °F 61 °F (1999)
Cooling Degree Days 14    
Growing Degree Days 30 (Base 50)    
Moisture  
Dew Point 59 °F    
Average Humidity 52    
Maximum Humidity 85    
Minimum Humidity 29    
Precipitation  
Precipitation 0.00 in - - ()
Sea Level Pressure  
Sea Level Pressure 30.04 in    
Wind  
Wind Speed 6 mph (WSW)    
Max Wind Speed 17 mph    
Max Gust Speed 31 mph    
Visibility 10 miles    
Events Thunderstorm    
Averages and records for this station are not official NWS values.
T = Trace of Precipitation, MM = Missing Value Source: NWS Daily Summary

Daily Weather History Graph

Daily Weather History Graph

Search for Another Location

Airport or City:

Trip Planner

Search our weather history database for the weather conditions in past years. The results will help you decide how hot, cold, wet, or windy it might be!

Date:

Astronomy

Jul. 23, 2013 Rise Set
Actual Time 5:42 AM PDT 7:55 PM PDT
Civil Twilight 5:12 AM PDT 8:25 PM PDT
Nautical Twilight 4:36 AM PDT 9:00 PM PDT
Astronomical Twilight 3:57 AM PDT 9:39 PM PDT
Moon 8:31 PM PDT (7/23) 6:52 AM PDT (7/23)
Length of Visible Light 15h 12m
Length of Day
14h 13m
Full, 98% of the Moon is Illuminated
Jul 23
Full
Jul 29
Last Quarter
Aug 6
New
Aug 14
First Quarter
Aug 20
Full

Hourly Weather History & Observations

Time (PDT) Temp. Heat Index Dew Point Humidity Pressure Visibility Wind Dir Wind Speed Gust Speed Precip Events Conditions
12:58 AM 70.3 °F - 63.0 °F 77% 30.04 in 10.0 mi WSW 6.9 mph - N/A   Clear
1:58 AM 69.8 °F - 62.4 °F 77% 30.03 in 10.0 mi SE 4.6 mph - N/A   Mostly Cloudy
2:58 AM 69.4 °F - 63.9 °F 82% 30.03 in 10.0 mi Variable 2.3 mph - N/A   Clear
3:58 AM 68.4 °F - 63.9 °F 85% 30.05 in 10.0 mi WNW 3.5 mph - N/A   Clear
4:58 AM 68.4 °F - 62.8 °F 82% 30.06 in 10.0 mi East 2.3 mph - N/A   Clear
5:58 AM 69.4 °F - 62.8 °F 79% 30.07 in 10.0 mi South 3.5 mph - N/A   Clear
6:58 AM 70.2 °F - 62.6 °F 77% 30.08 in 10.0 mi NNW 3.5 mph - N/A   Clear
7:58 AM 73.8 °F - 62.8 °F 68% 30.09 in 10.0 mi WNW 2.3 mph - N/A   Clear
8:54 AM 77.0 °F - 62.6 °F 61% 30.09 in 10.0 mi WNW 3.5 mph - N/A   Clear
9:54 AM 80.6 °F 81.1 °F 59.0 °F 48% 30.08 in 10.0 mi North 1.2 mph - N/A   Partly Cloudy
10:54 AM 84.2 °F 83.0 °F 55.4 °F 37% 30.09 in 10.0 mi WNW 2.3 mph - N/A   Clear
11:54 AM 87.8 °F 87.1 °F 59.0 °F 38% 30.07 in 10.0 mi West 3.5 mph - N/A   Mostly Cloudy
12:54 PM 86.0 °F 86.1 °F 60.8 °F 43% 30.06 in 10.0 mi SSW 15.0 mph - N/A Thunderstorm Mostly Cloudy
1:05 PM 82.4 °F 82.0 °F 57.2 °F 42% 30.06 in 10.0 mi SSW 17.3 mph - N/A Thunderstorm Mostly Cloudy
1:37 PM 80.6 °F 81.5 °F 60.8 °F 51% 30.06 in 10.0 mi SSW 16.1 mph 31.1 mph N/A   Light Drizzle
1:54 PM 82.4 °F 82.0 °F 57.2 °F 42% 30.05 in 10.0 mi SSW 16.1 mph - N/A   Clear
1:56 PM 82.4 °F 82.0 °F 57.2 °F 42% 30.05 in 10.0 mi SSW 13.8 mph - N/A   Clear
2:58 PM 88.0 °F 85.9 °F 53.8 °F 31% 30.02 in 10.0 mi SSW 8.1 mph - N/A   Partly Cloudy
3:58 PM 89.1 °F 87.1 °F 54.3 °F 31% 30.01 in 10.0 mi East 2.3 mph - N/A   Partly Cloudy
4:58 PM 90.3 °F 88.3 °F 54.5 °F 30% 29.98 in 10.0 mi Variable 2.3 mph - N/A   Partly Cloudy
5:58 PM 91.4 °F 89.4 °F 54.9 °F 29% 29.97 in 10.0 mi Variable 1.2 mph - N/A   Scattered Clouds
6:58 PM 89.8 °F 87.5 °F 53.2 °F 29% 29.97 in 10.0 mi NNE 2.3 mph - N/A   Partly Cloudy
7:58 PM 89.1 °F 87.3 °F 55.6 °F 32% 29.97 in 10.0 mi East 1.2 mph - N/A   Clear
8:58 PM 86.2 °F 85.2 °F 57.7 °F 38% 29.98 in 10.0 mi North 3.5 mph - N/A   Clear
9:58 PM 82.0 °F 83.0 °F 62.2 °F 51% 30.00 in 10.0 mi West 2.3 mph - N/A   Clear
10:58 PM 79.2 °F - 63.5 °F 59% 30.01 in 10.0 mi West 6.9 mph - N/A   Clear
11:58 PM 79.7 °F - 61.2 °F 53% 30.01 in 10.0 mi West 8.1 mph - N/A   Mostly Cloudy